Date,TemperatureHighF,TemperatureAvgF,TemperatureLowF,DewpointHighF,DewpointAvgF,DewpointLowF,HumidityHigh,HumidityAvg,HumidityLow,PressureMaxIn,PressureMinIn,WindSpeedMaxMPH,WindSpeedAvgMPH,GustSpeedMaxMPH,PrecipitationSumIn
2012-1-1,49.0,37.7,26.0,43.0,34.5,25.0,98,89,73,30.05,29.61,3,1,13,0.05
2012-1-2,45.0,37.4,28.0,44.0,29.7,20.0,97,75,49,29.69,29.52,13,3,23,0.06
2012-1-3,32.0,17.9,11.0,32.0,4.3,-1.0,100,55,45,30.05,29.69,10,4,21,0.01
2012-1-4,26.0,17.0,7.0,9.0,2.6,-1.0,72,54,34,30.14,29.90,6,2,14,0.01
2012-1-5,37.0,28.8,24.0,26.0,17.0,9.0,74,61,51,29.93,29.74,8,2,16,0.00
2012-1-6,43.0,30.1,21.0,31.0,23.3,15.0,89,76,60,29.94,29.74,2,0,5,0.00
2012-1-7,52.0,33.3,25.0,37.0,28.1,23.0,100,82,54,29.86,29.66,4,0,10,0.00
2012-1-8,43.0,34.2,25.0,32.0,25.7,18.0,94,73,51,30.28,29.85,7,2,16,0.00
2012-1-9,37.0,26.9,20.0,22.0,18.1,16.0,87,71,46,30.30,30.08,3,1,10,0.00
2012-1-10,43.0,32.8,25.0,30.0,26.3,22.0,92,78,59,29.96,29.77,8,1,12,0.00
2012-1-11,37.0,28.7,21.0,28.0,22.5,19.0,94,79,52,30.15,29.96,2,0,5,0.00
2012-1-12,34.0,32.7,31.0,32.0,31.2,29.0,96,93,87,30.08,29.56,3,1,10,0.07
2012-1-13,33.0,30.3,28.0,31.0,26.3,22.0,96,85,73,29.59,29.27,11,5,27,0.31
2012-1-14,32.0,26.7,12.0,25.0,17.3,5.0,79,67,51,29.99,29.50,10,4,21,0.00
2012-1-15,15.0,8.4,2.0,5.0,-1.9,-6.0,75,62,50,30.47,29.98,9,4,21,0.00
2012-1-16,30.0,17.6,2.0,27.0,6.2,-2.0,92,63,38,30.56,30.10,4,2,15,0.00
2012-1-17,42.0,36.0,30.0,39.0,33.4,27.0,97,90,77,30.09,29.41,3,1,10,0.37
2012-1-18,48.0,33.2,18.0,45.0,19.7,3.0,98,59,41,30.14,29.36,12,6,31,0.09
2012-1-19,29.0,20.3,9.0,24.0,12.3,4.0,91,72,54,30.29,29.96,3,1,10,0.01
2012-1-20,29.0,22.0,12.0,24.0,13.4,6.0,100,71,42,30.24,29.90,10,2,21,0.05
2012-1-21,19.0,16.3,7.0,15.0,10.0,4.0,88,77,55,30.33,30.11,2,0,8,0.01
2012-1-22,29.0,16.0,-1.0,21.0,10.8,-4.0,92,80,57,30.55,30.33,1,0,5,0.09
2012-1-23,34.0,30.0,24.0,32.0,27.1,21.0,96,89,80,30.50,29.86,2,0,5,0.23
2012-1-24,53.0,40.9,33.0,46.0,35.6,30.0,98,83,65,30.01,29.82,6,2,15,0.25
2012-1-25,40.0,36.1,32.0,30.0,27.2,26.0,82,70,60,30.18,30.01,8,3,21,0.01
2012-1-26,42.0,34.7,29.0,32.0,26.4,19.0,95,73,41,30.20,29.99,5,1,10,0.00
2012-1-27,40.0,36.4,33.0,39.0,35.0,32.0,98,95,79,29.99,29.27,9,1,22,1.30
2012-1-28,46.0,39.6,31.0,34.0,30.0,28.0,90,69,51,29.96,29.55,9,3,25,0.01
2012-1-29,42.0,36.4,30.0,31.0,19.9,16.0,80,52,35,30.02,29.82,10,5,24,0.00
2012-1-30,37.0,30.3,22.0,29.0,19.4,12.0,89,66,36,30.26,29.89,12,4,27,0.00
2012-1-31,40.0,31.2,22.0,32.0,26.8,18.0,94,84,67,30.27,30.01,2,0,6,0.00
2012-2-1,56.0,39.9,31.0,45.0,35.1,30.0,97,84,63,30.01,29.73,6,2,15,0.01
2012-2-2,42.0,35.5,30.0,34.0,29.3,22.0,89,78,66,30.17,29.93,4,1,10,0.01
2012-2-3,38.0,29.3,22.0,25.0,17.6,12.0,83,63,34,30.37,30.17,7,2,17,0.00
2012-2-4,38.0,31.4,24.0,29.0,21.4,12.0,91,68,45,30.22,30.08,6,1,17,0.00
2012-2-5,38.0,25.2,14.0,18.0,13.5,9.0,89,64,31,30.16,30.02,5,1,10,0.00
2012-2-6,52.0,36.5,20.0,28.0,22.4,16.0,86,60,33,30.03,29.78,8,3,21,0.00
2012-2-7,44.0,32.8,25.0,30.0,24.4,15.0,91,73,49,30.23,29.84,8,2,18,0.00
2012-2-8,38.0,27.6,14.0,20.0,12.7,9.0,86,56,29,30.30,30.03,3,1,12,0.00
2012-2-9,47.0,32.7,22.0,22.0,18.6,14.0,86,60,28,30.06,29.93,6,2,15,0.00
2012-2-10,51.0,34.7,19.0,27.0,21.2,16.0,92,62,29,30.08,29.83,7,1,21,0.00
2012-2-11,41.0,35.2,31.0,29.0,25.3,18.0,82,67,52,29.83,29.52,5,2,15,0.00
2012-2-12,31.0,23.2,12.0,19.0,8.0,-1.0,67,52,38,29.85,29.52,10,5,27,0.00
2012-2-13,40.0,26.9,11.0,22.0,14.8,1.0,82,61,43,29.94,29.76,10,4,23,0.00
2012-2-14,44.0,29.4,18.0,24.0,19.1,15.0,93,69,33,30.09,29.95,2,0,8,0.00
2012-2-15,44.0,34.3,29.0,36.0,28.8,22.0,92,81,70,30.22,30.08,2,0,4,0.00
2012-2-16,46.0,34.9,22.0,37.0,30.2,20.0,96,84,59,30.27,30.02,3,0,9,0.10
2012-2-17,50.0,40.2,27.0,41.0,32.2,23.0,97,76,45,30.02,29.82,9,2,18,0.10
2012-2-18,47.0,35.5,26.0,32.0,24.5,22.0,94,67,38,29.94,29.78,8,3,20,0.01
2012-2-19,44.0,31.8,23.0,26.0,22.4,19.0,94,71,39,30.04,29.93,5,1,12,0.01
2012-2-20,41.0,30.6,23.0,20.0,16.3,11.0,82,58,30,30.27,29.97,8,3,24,0.00
2012-2-21,44.0,31.8,17.0,32.0,21.2,15.0,93,68,38,30.31,29.83,4,1,14,0.00
2012-2-22,57.0,41.8,29.0,38.0,30.1,24.0,96,67,32,29.83,29.50,9,2,18,0.00
2012-2-23,50.0,41.4,32.0,44.0,33.2,25.0,94,74,45,29.76,29.36,11,2,25,0.07
2012-2-24,40.0,34.4,29.0,39.0,31.2,26.0,97,88,72,29.78,29.18,5,0,13,0.91
2012-2-25,43.0,36.8,31.0,34.0,26.2,18.0,97,67,48,29.78,29.15,13,7,32,0.84
2012-2-26,39.0,29.4,23.0,19.0,10.5,4.0,80,48,25,30.41,29.75,10,5,27,0.00
2012-2-27,50.0,33.2,17.0,32.0,23.0,14.0,91,69,44,30.43,30.00,4,1,14,0.00
2012-2-28,45.0,37.8,26.0,30.0,23.3,16.0,87,57,34,30.38,30.00,11,4,27,0.00
2012-2-29,36.0,30.6,27.0,30.0,24.0,18.0,95,78,54,30.37,29.93,1,0,4,0.00
2012-3-1,34.0,28.9,23.0,33.0,27.3,21.0,96,93,90,30.01,29.77,3,1,15,0.00
2012-3-2,30.0,25.4,20.0,27.0,22.2,18.0,91,87,81,30.16,29.96,2,0,7,0.02
2012-3-3,42.0,33.8,29.0,40.0,31.7,26.0,97,93,88,29.96,29.33,2,0,6,0.72
2012-3-4,43.0,32.5,25.0,30.0,25.7,23.0,94,78,48,29.65,29.49,4,1,10,0.01
2012-3-5,35.0,28.6,21.0,23.0,15.4,9.0,93,58,44,30.31,29.61,8,4,19,0.00
2012-3-6,38.0,25.4,16.0,20.0,9.4,4.0,84,54,23,30.56,30.30,6,2,15,0.00
2012-3-7,59.0,41.3,22.0,34.0,27.2,17.0,84,60,33,30.55,30.20,6,2,19,0.00
2012-3-8,69.0,56.9,37.0,49.0,44.1,34.0,93,63,43,30.20,29.64,10,5,28,0.00
2012-3-9,61.0,41.3,30.0,51.0,26.4,17.0,87,57,33,30.12,29.64,13,4,29,0.01
2012-3-10,40.0,32.4,24.0,30.0,23.2,19.0,91,70,47,30.47,30.11,6,1,12,0.01
2012-3-11,59.0,41.7,24.0,31.0,23.0,-99.9,88,54,26,30.47,30.20,8,2,19,0.01
2012-3-12,72.0,49.8,29.0,41.0,32.4,26.0,91,58,21,30.25,30.09,6,1,14,0.00
2012-3-13,74.0,58.0,48.0,55.0,47.7,38.0,88,70,49,30.09,29.84,8,1,15,0.01
2012-3-14,56.0,46.8,40.0,53.0,43.7,36.0,94,89,77,30.26,29.91,3,0,10,0.16
2012-3-15,45.0,39.9,36.0,36.0,33.8,30.0,90,79,67,30.38,30.25,1,0,8,0.01
2012-3-16,43.0,39.8,36.0,41.0,35.9,32.0,94,86,73,30.34,30.07,3,0,12,0.18
2012-3-17,52.0,43.0,35.0,45.0,39.2,33.0,95,87,71,30.34,30.14,2,0,5,0.01
2012-3-18,80.0,53.7,34.0,53.0,43.3,32.0,95,73,35,30.31,30.10,4,1,10,0.00
2012-3-19,82.0,56.5,41.0,55.0,45.4,39.0,95,71,33,30.27,30.09,2,0,11,0.00
2012-3-20,82.0,58.6,38.0,56.0,45.3,-99.9,94,68,34,30.31,30.17,5,1,13,0.00
2012-3-21,83.0,65.1,48.0,57.0,51.5,45.0,95,66,28,30.32,30.18,5,1,18,0.00
2012-3-22,85.0,64.9,50.0,60.0,51.6,-99.9,95,68,29,30.20,29.96,5,-6,14,0.00
2012-3-23,74.0,64.1,55.0,53.0,39.4,23.0,88,46,21,30.11,29.97,7,2,18,0.00
2012-3-24,57.0,50.9,46.0,36.0,29.4,18.0,63,44,24,30.16,30.01,2,1,8,0.00
2012-3-25,47.0,44.0,39.0,42.0,39.5,34.0,93,84,60,30.01,29.70,1,0,5,0.09
2012-3-26,44.0,37.9,31.0,41.0,24.8,7.0,94,63,35,29.96,29.59,12,4,31,0.01
2012-3-27,48.0,34.8,25.0,20.0,3.3,-4.0,65,28,12,30.15,29.96,9,5,27,0.01
2012-3-28,53.0,41.3,30.0,44.0,29.8,15.0,91,65,37,30.13,29.53,3,1,10,0.04
2012-3-29,47.0,42.2,39.0,41.0,33.5,27.0,97,72,54,29.89,29.52,6,2,19,0.02
2012-3-30,50.0,39.3,28.0,28.0,20.5,9.0,84,52,20,30.02,29.89,9,2,24,0.01
2012-3-31,49.0,39.9,30.0,32.0,27.6,24.0,88,62,46,30.03,29.86,3,1,8,0.00
2012-4-1,55.0,38.7,24.0,40.0,30.4,22.0,93,76,37,29.87,29.60,5,1,13,0.11
2012-4-2,54.0,43.3,35.0,40.0,28.1,13.0,93,62,23,29.80,29.58,7,2,23,0.16
2012-4-3,58.0,40.9,25.0,28.0,18.0,10.0,86,47,16,29.84,29.70,9,3,22,0.01
2012-4-4,62.0,48.6,33.0,35.0,27.1,18.0,84,48,22,29.72,29.46,9,3,22,0.00
2012-4-5,51.0,41.7,31.0,32.0,26.5,22.0,88,56,39,29.88,29.63,8,3,23,0.00
2012-4-6,52.0,39.0,27.0,27.0,22.9,17.0,87,57,26,29.96,29.86,7,2,17,0.00
2012-4-7,54.0,41.3,26.0,30.0,24.1,19.0,84,54,31,29.98,29.89,6,2,17,0.00
2012-4-8,50.0,44.2,39.0,34.0,28.8,24.0,77,56,39,29.95,29.59,7,2,16,0.00
2012-4-9,53.0,44.9,32.0,35.0,32.2,28.0,86,62,48,29.59,29.46,11,5,26,0.00
2012-4-10,59.0,48.1,36.0,34.0,30.5,28.0,82,52,34,29.75,29.57,7,3,18,0.00
2012-4-11,59.0,45.7,35.0,40.0,34.3,29.0,85,67,35,29.87,29.75,3,0,10,0.00
2012-4-12,55.0,45.5,37.0,43.0,39.4,34.0,92,80,51,30.06,29.86,5,1,18,0.17
2012-4-13,65.0,47.1,29.0,41.0,30.3,23.0,95,61,21,30.14,29.98,7,2,17,0.08
2012-4-14,72.0,51.7,31.0,40.0,29.9,21.0,92,53,16,30.14,29.94,7,2,16,0.01
2012-4-15,78.0,62.7,45.0,56.0,46.2,-99.9,81,58,39,29.98,29.85,6,2,17,0.00
2012-4-16,91.0,74.9,58.0,62.0,55.5,49.0,94,58,24,29.98,29.83,6,2,19,0.02
2012-4-17,82.0,70.8,57.0,57.0,40.8,24.0,89,41,12,30.11,29.84,7,4,21,0.00
2012-4-18,62.0,53.8,43.0,39.0,32.4,25.0,80,46,28,30.24,30.11,5,2,17,0.00
2012-4-19,74.0,54.4,36.0,46.0,37.3,23.0,93,60,16,30.12,29.93,4,1,10,0.00
2012-4-20,80.0,63.0,43.0,50.0,44.2,39.0,92,56,26,29.98,29.85,5,2,18,0.00
2012-4-21,79.0,66.3,56.0,58.0,52.7,46.0,83,63,39,29.88,29.63,6,2,17,0.00
2012-4-22,64.0,50.8,43.0,57.0,46.5,-99.9,93,89,76,29.82,29.65,2,1,10,0.84
2012-4-23,64.0,49.7,41.0,61.0,47.1,39.0,97,91,79,29.71,29.27,5,2,20,1.74
2012-4-24,56.0,50.0,46.0,45.0,36.7,31.0,89,62,39,29.67,29.36,7,3,24,0.01
2012-4-25,61.0,48.6,34.0,38.0,35.0,30.0,93,62,33,29.85,29.67,7,2,20,0.00
2012-4-26,65.0,47.9,31.0,49.0,36.6,29.0,94,70,30,29.94,29.54,5,1,16,0.03
2012-4-27,53.0,48.1,39.0,49.0,36.6,24.0,94,66,44,29.96,29.49,11,5,28,0.09
2012-4-28,57.0,45.3,35.0,34.0,22.0,15.0,69,42,20,30.10,29.96,8,4,21,0.00
2012-4-29,57.0,46.3,33.0,34.0,20.0,-99.9,83,41,16,30.20,29.99,9,3,25,0.00
2012-4-30,64.0,48.3,28.0,36.0,26.7,18.0,86,47,22,30.32,30.17,3,1,9,0.00
2012-5-1,53.0,46.2,43.0,45.0,41.4,34.0,93,85,48,30.20,30.06,2,0,10,0.54
2012-5-2,53.0,48.1,44.0,47.0,44.1,42.0,94,87,77,30.22,30.13,1,0,7,0.01
2012-5-3,53.0,49.2,46.0,50.0,46.8,43.0,94,91,88,30.20,30.08,1,0,5,0.07
2012-5-4,56.0,52.5,50.0,54.0,50.6,48.0,97,93,91,30.08,29.92,1,0,8,0.05
2012-5-5,68.0,56.7,50.0,58.0,51.9,48.0,95,85,67,30.08,29.93,2,0,7,0.02
2012-5-6,66.0,55.3,45.0,51.0,45.7,-99.9,94,74,50,30.13,30.04,3,1,10,0.01
2012-5-7,72.0,56.1,40.0,54.0,42.8,37.0,94,65,34,30.14,30.05,3,1,12,0.00
2012-5-8,56.0,52.6,48.0,54.0,48.4,45.0,94,86,67,30.09,29.85,3,1,14,0.34
2012-5-9,65.0,60.7,56.0,62.0,58.2,54.0,94,92,84,29.85,29.58,2,0,7,0.06
2012-5-10,65.0,57.1,48.0,59.0,51.0,42.0,95,81,59,29.66,29.39,7,2,18,0.47
2012-5-11,66.0,52.2,40.0,46.0,39.9,35.0,94,67,33,30.03,29.66,7,2,24,0.02
2012-5-12,79.0,58.2,35.0,52.0,38.6,30.0,95,58,22,30.13,30.00,6,2,18,0.00
2012-5-13,85.0,65.1,47.0,59.0,49.4,-99.9,94,64,26,30.14,30.01,4,0,12,0.00
2012-5-14,70.0,60.3,56.0,60.0,54.9,50.0,94,83,65,30.17,30.09,1,0,8,0.13
2012-5-15,72.0,63.1,57.0,62.0,58.2,55.0,95,85,56,30.14,29.95,4,1,12,0.43
2012-5-16,74.0,65.8,61.0,67.0,62.6,59.0,95,89,75,29.95,29.78,2,0,9,0.32
2012-5-17,68.0,59.1,45.0,61.0,45.3,36.0,94,65,32,30.14,29.85,5,2,16,0.22
2012-5-18,74.0,56.7,38.0,49.0,42.7,36.0,95,65,33,30.25,30.13,2,0,8,0.00
2012-5-19,81.0,62.3,43.0,56.0,47.6,41.0,94,64,31,30.19,30.09,2,0,8,0.00
2012-5-20,85.0,64.9,48.0,60.0,50.0,-99.9,94,65,31,30.29,30.15,2,0,9,0.00
2012-5-21,75.0,60.4,46.0,66.0,54.7,44.0,94,82,65,30.28,30.09,2,0,10,0.00
2012-5-22,66.0,61.9,58.0,64.0,60.1,56.0,95,94,92,30.08,29.83,0,0,5,0.31
2012-5-23,77.0,68.0,61.0,68.0,63.1,60.0,95,85,64,30.04,29.84,2,0,7,0.04
2012-5-24,79.0,66.9,57.0,68.0,61.4,55.0,95,84,65,30.23,30.04,2,0,9,0.00
2012-5-25,76.0,66.2,59.0,68.0,62.4,57.0,94,88,74,30.25,30.07,2,0,10,0.00
2012-5-26,86.0,73.6,59.0,72.0,64.1,51.0,94,75,31,30.09,30.00,3,1,11,0.00
2012-5-27,81.0,67.0,53.0,62.0,54.1,-99.9,95,69,41,30.17,30.01,2,0,11,0.00
2012-5-28,79.0,66.9,56.0,66.0,57.7,54.0,93,74,54,30.03,29.90,2,0,11,0.02
2012-5-29,72.0,63.4,60.0,68.0,60.2,54.0,94,89,75,29.94,29.71,2,0,8,0.07
2012-5-30,77.0,68.0,61.0,68.0,63.3,60.0,96,85,61,29.73,29.67,2,0,7,0.10
2012-5-31,81.0,69.3,58.0,62.0,56.3,50.0,95,67,36,29.91,29.70,4,1,13,0.00
2012-6-1,73.0,62.8,53.0,52.0,48.3,43.0,88,61,35,30.07,29.91,2,0,10,0.01
2012-6-2,60.0,57.0,53.0,59.0,54.3,47.0,95,90,75,30.01,29.67,1,0,11,1.07
2012-6-3,61.0,57.8,53.0,59.0,53.9,-99.9,95,89,78,29.70,29.66,3,1,11,0.23
2012-6-4,54.0,51.7,50.0,52.0,49.5,48.0,94,93,90,29.82,29.63,1,0,13,0.40
2012-6-5,60.0,53.3,48.0,54.0,50.4,46.0,95,90,77,29.91,29.79,2,0,10,0.09
2012-6-6,66.0,56.5,53.0,55.0,51.6,48.0,90,84,55,29.98,29.91,1,0,7,0.17
2012-6-7,72.0,58.0,48.0,63.0,53.9,46.0,95,87,61,29.98,29.90,2,0,11,0.25
2012-6-8,80.0,63.8,53.0,65.0,56.9,51.0,97,80,47,29.94,29.72,4,0,14,0.06
2012-6-9,77.0,64.5,50.0,60.0,54.0,48.0,95,72,38,29.94,29.77,4,1,14,0.09
2012-6-10,82.0,65.6,49.0,59.0,50.8,-99.9,95,66,31,30.20,29.94,2,0,9,0.01
2012-6-11,78.0,65.7,52.0,63.0,55.5,50.0,94,72,49,30.28,30.17,3,1,11,0.00
2012-6-12,77.0,68.5,61.0,65.0,58.7,53.0,87,71,58,30.19,29.95,4,2,15,0.03
2012-6-13,72.0,65.2,62.0,68.0,62.9,60.0,94,93,86,30.06,29.90,3,1,10,0.83
2012-6-14,77.0,66.9,56.0,63.0,58.8,54.0,95,77,48,30.24,30.06,2,0,8,0.01
2012-6-15,68.0,68.0,68.0,60.0,60.0,60.0,75,75,75,30.22,30.22,0,0,0,0.00
2012-6-16,68.0,68.0,68.0,60.0,60.0,60.0,75,75,75,30.22,30.22,0,0,0,0.00
2012-6-17,72.0,65.3,51.0,60.0,54.5,-99.9,92,70,52,30.27,30.11,3,0,9,0.00
2012-6-18,70.0,58.5,49.0,59.0,52.4,46.0,94,81,58,30.16,30.09,2,0,7,0.00
2012-6-19,76.0,64.5,50.0,67.0,58.8,48.0,95,83,68,30.14,30.00,3,1,11,0.00
2012-6-20,95.0,79.3,63.0,79.0,70.8,61.0,95,78,52,30.00,29.84,3,1,11,0.00
2012-6-21,94.0,81.3,69.0,79.0,72.0,67.0,95,76,47,29.85,29.70,3,1,13,0.00
2012-6-22,93.0,78.8,66.0,76.0,69.6,64.0,96,76,46,29.75,29.66,2,1,11,0.00
2012-6-23,88.0,72.3,61.0,70.0,64.1,58.0,94,78,42,29.91,29.74,4,0,16,0.00
2012-6-24,85.0,69.6,54.0,62.0,56.4,50.0,95,68,32,29.93,29.83,3,1,11,0.00
2012-6-25,72.0,66.8,62.0,67.0,62.4,58.0,94,86,76,29.83,29.62,3,0,10,0.89
2012-6-26,72.0,63.0,57.0,61.0,57.3,53.0,93,82,66,29.63,29.54,5,2,18,0.03
2012-6-27,75.0,65.2,57.0,62.0,57.4,54.0,92,77,60,29.71,29.53,6,2,16,0.01
2012-6-28,83.0,70.5,58.0,67.0,60.3,55.0,92,72,47,29.73,29.66,5,1,18,0.00
2012-6-29,90.0,71.9,58.0,76.0,63.4,54.0,95,77,37,29.70,29.50,4,1,14,0.31
2012-6-30,86.0,76.3,59.0,67.0,62.0,56.0,92,64,41,29.70,29.60,5,2,17,0.04
2012-7-1,91.0,76.4,62.0,69.0,62.6,59.0,95,66,37,29.81,29.69,5,1,19,0.00
2012-7-2,84.0,72.5,62.0,65.0,62.4,58.0,94,73,48,29.87,29.80,4,1,15,0.00
2012-7-3,85.0,71.2,58.0,66.0,59.6,54.0,95,70,37,29.91,29.82,4,1,15,0.00
2012-7-4,87.0,74.5,62.0,76.0,68.3,59.0,95,82,57,29.82,29.64,2,0,9,0.01
2012-7-5,83.0,73.6,64.0,69.0,65.3,61.0,95,77,57,29.84,29.66,6,1,20,0.01
2012-7-6,86.0,71.8,59.0,74.0,65.2,57.0,95,81,50,29.90,29.79,2,0,8,0.00
2012-7-7,82.0,73.8,66.0,76.0,69.0,64.0,94,85,69,29.80,29.70,2,0,10,0.00
2012-7-8,87.0,73.6,59.0,68.0,61.4,54.0,96,69,42,29.85,29.75,5,1,15,0.00
2012-7-9,83.0,68.3,53.0,62.0,54.6,50.0,94,66,36,29.97,29.86,3,1,14,0.00
2012-7-10,84.0,67.2,50.0,61.0,54.2,48.0,95,68,32,30.06,29.97,2,0,9,0.00
2012-7-11,87.0,70.6,54.0,66.0,57.8,52.0,95,69,34,30.16,30.06,1,0,7,0.00
2012-7-12,89.0,75.3,60.0,70.0,63.3,56.0,95,70,34,30.16,30.05,2,0,8,0.00
2012-7-13,91.0,77.2,62.0,74.0,67.1,60.0,94,73,50,30.16,30.07,2,1,11,0.00
2012-7-14,92.0,77.4,67.0,74.0,67.6,60.0,91,75,35,30.13,30.02,2,0,7,0.00
2012-7-15,92.0,76.9,64.0,74.0,68.2,62.0,95,77,46,30.06,29.85,2,0,7,0.03
2012-7-16,90.0,78.8,68.0,75.0,71.1,66.0,95,79,52,29.85,29.71,4,1,14,0.03
2012-7-17,93.0,81.3,66.0,74.0,69.7,64.0,95,71,47,29.76,29.60,5,1,18,0.00
2012-7-18,88.0,79.6,72.0,77.0,71.4,60.0,92,77,61,29.88,29.65,2,0,10,0.00
2012-7-19,84.0,72.9,62.0,63.0,57.4,54.0,84,60,41,30.01,29.88,4,1,12,0.00
2012-7-20,74.0,66.3,58.0,62.0,57.8,54.0,90,75,53,30.08,30.01,1,0,5,0.00
2012-7-21,84.0,66.7,50.0,62.0,54.4,48.0,95,69,36,30.09,30.03,2,0,9,0.00
2012-7-22,88.0,72.8,56.0,68.0,59.5,53.0,95,66,40,30.11,30.01,3,1,14,0.00
2012-7-23,87.0,76.1,66.0,72.0,66.9,61.0,92,74,56,30.06,29.74,4,1,13,0.01
2012-7-24,90.0,77.5,68.0,76.0,67.9,55.0,90,74,46,29.74,29.49,4,1,18,0.02
2012-7-25,83.0,70.9,59.0,60.0,55.3,53.0,84,60,39,29.80,29.68,6,2,19,0.01
2012-7-26,81.0,70.9,62.0,72.0,63.7,55.0,90,79,63,29.77,29.57,2,0,9,0.01
2012-7-27,75.0,70.0,67.0,71.0,67.4,65.0,94,91,84,29.89,29.59,2,0,10,0.12
2012-7-28,84.0,71.0,64.0,73.0,67.3,62.0,95,89,62,29.97,29.88,1,0,12,0.11
2012-7-29,74.0,67.6,60.0,69.0,64.4,58.0,95,90,76,30.06,29.93,1,0,6,0.09
2012-7-30,86.0,70.8,55.0,69.0,61.3,53.0,96,75,45,30.11,30.02,3,1,12,0.01
2012-7-31,83.0,70.7,59.0,68.0,63.2,57.0,95,79,49,30.09,29.91,2,0,10,0.00
2012-8-1,85.0,74.0,68.0,74.0,68.7,65.0,93,84,62,29.90,29.81,3,1,11,0.04
2012-8-2,89.0,77.0,67.0,78.0,70.4,65.0,95,81,54,29.86,29.78,2,0,7,0.13
2012-8-3,92.0,78.9,66.0,75.0,68.4,64.0,96,74,42,30.05,29.86,4,1,15,0.06
2012-8-4,94.0,76.0,67.0,77.0,69.7,65.0,95,83,53,30.21,30.05,3,0,12,0.31
2012-8-5,92.0,75.9,65.0,78.0,70.7,63.0,96,85,56,30.19,29.89,5,1,17,0.30
2012-8-6,83.0,74.1,62.0,73.0,66.0,59.0,96,78,53,29.96,29.88,4,1,13,0.09
2012-8-7,84.0,70.4,56.0,67.0,61.0,54.0,95,75,45,30.00,29.91,2,0,10,0.00
2012-8-8,90.0,74.5,58.0,72.0,63.3,56.0,95,72,35,29.97,29.90,2,0,12,0.00
2012-8-9,92.0,74.7,64.0,74.0,68.9,62.0,95,84,47,29.94,29.85,2,0,8,0.35
2012-8-10,85.0,74.9,70.0,75.0,71.4,68.0,95,90,67,29.91,29.77,2,0,10,0.80
2012-8-11,81.0,72.4,65.0,75.0,70.0,64.0,96,92,80,29.90,29.78,1,0,4,0.93
2012-8-12,84.0,75.0,70.0,77.0,70.4,-99.9,97,89,69,29.91,29.81,3,0,14,0.23
2012-8-13,85.0,73.0,63.0,72.0,65.7,61.0,96,80,53,29.93,29.86,3,0,11,0.02
2012-8-14,84.0,71.0,60.0,72.0,64.6,58.0,96,82,51,29.94,29.87,1,0,8,0.00
2012-8-15,82.0,71.7,65.0,72.0,67.5,63.0,95,87,63,29.90,29.81,2,0,8,0.26
2012-8-16,83.0,73.0,63.0,72.0,66.7,61.0,95,82,52,29.85,29.77,4,1,11,0.84
2012-8-17,87.0,72.8,57.0,72.0,64.8,55.0,96,78,54,29.82,29.71,3,1,15,0.11
2012-8-18,80.0,69.9,61.0,70.0,64.7,58.0,95,85,58,29.88,29.79,2,0,7,0.18
2012-8-19,76.0,64.4,52.0,65.0,57.8,50.0,95,81,56,29.96,29.88,2,0,6,0.01
2012-8-20,80.0,66.8,53.0,68.0,59.0,51.0,95,78,49,29.92,29.81,1,0,6,0.01
2012-8-21,82.0,69.7,60.0,68.0,60.7,56.0,95,76,44,30.06,29.88,3,0,9,0.00
2012-8-22,83.0,67.1,52.0,66.0,57.8,50.0,95,76,42,30.14,30.06,2,0,8,0.00
2012-8-23,86.0,70.1,56.0,71.0,61.9,54.0,95,78,42,30.12,30.04,2,0,9,0.00
2012-8-24,86.0,71.0,57.0,71.0,63.5,55.0,95,79,49,30.20,30.09,2,0,8,0.00
2012-8-25,83.0,70.7,61.0,71.0,63.4,58.0,95,79,53,30.31,30.20,1,0,7,0.00
2012-8-26,85.0,69.2,55.0,70.0,60.7,53.0,95,77,51,30.33,30.20,2,0,8,0.00
2012-8-27,87.0,72.1,56.0,71.0,63.8,54.0,95,77,51,30.20,29.90,3,1,12,0.00
2012-8-28,85.0,74.5,64.0,75.0,67.5,58.0,95,80,57,29.89,29.68,4,0,15,0.45
2012-8-29,77.0,63.5,51.0,59.0,53.4,49.0,94,73,42,29.96,29.87,3,1,13,0.01
2012-8-30,82.0,65.2,48.0,62.0,54.6,46.0,95,72,45,30.01,29.92,4,1,17,0.00
2012-8-31,90.0,72.3,55.0,68.0,59.5,53.0,94,68,34,29.93,29.76,3,1,14,0.00
2012-9-1,82.0,69.7,58.0,69.0,61.3,55.0,95,76,51,30.10,29.82,2,0,9,0.00
2012-9-2,78.0,65.0,57.0,64.0,58.6,54.0,95,81,53,30.14,30.04,2,0,7,0.00
2012-9-3,79.0,66.9,57.0,65.0,59.2,55.0,95,79,49,30.22,30.11,2,0,9,0.00
2012-9-4,69.0,66.0,62.0,67.0,63.2,57.0,95,91,76,30.13,29.85,1,0,4,0.17
2012-9-5,82.0,74.1,68.0,76.0,70.1,66.0,96,88,72,29.85,29.66,4,1,14,0.22
2012-9-6,81.0,71.8,65.0,71.0,66.5,63.0,95,84,64,29.89,29.81,2,0,8,0.01
2012-9-7,86.0,73.2,62.0,72.0,65.4,60.0,96,79,42,29.91,29.83,2,0,8,0.00
2012-9-8,85.0,75.3,64.0,73.0,69.3,62.0,94,82,59,29.86,29.58,5,2,19,0.28
2012-9-9,73.0,63.7,54.0,62.0,58.2,52.0,94,84,56,29.83,29.67,2,0,8,0.28
2012-9-10,69.0,58.0,51.0,55.0,50.1,45.0,94,76,55,30.03,29.83,6,1,17,0.01
2012-9-11,74.0,57.4,42.0,53.0,46.6,40.0,94,71,37,30.24,30.03,3,0,10,0.00
2012-9-12,79.0,59.5,41.0,60.0,49.7,39.0,95,75,34,30.34,30.24,1,0,9,0.00
2012-9-13,84.0,65.2,48.0,66.0,56.3,46.0,95,76,47,30.33,30.22,2,0,8,0.00
2012-9-14,85.0,69.0,54.0,69.0,60.5,52.0,95,77,49,30.23,30.06,3,0,9,0.00
2012-9-15,71.0,70.5,48.0,63.0,62.6,45.0,91,77,77,30.06,30.03,1,1,6,0.02
2012-9-16,72.0,54.4,40.0,54.0,43.2,36.0,95,71,31,30.07,29.96,5,1,14,0.02
2012-9-17,76.0,52.5,35.0,57.0,46.0,33.0,95,81,46,30.09,29.99,2,0,8,0.00
2012-9-18,74.0,63.7,52.0,69.0,60.0,50.0,95,88,78,30.03,29.64,6,2,21,0.69
2012-9-19,72.0,62.6,46.0,69.0,53.8,43.0,94,76,37,30.19,29.65,5,1,15,1.07
2012-9-20,70.0,51.6,37.0,55.0,44.2,35.0,95,78,52,30.28,30.14,1,0,7,0.01
2012-9-21,68.0,51.4,39.0,57.0,46.6,37.0,95,85,58,30.17,30.06,1,0,7,0.00
2012-9-22,73.0,60.9,48.0,63.0,56.1,46.0,95,85,64,30.06,29.80,2,0,7,0.00
2012-9-23,71.0,61.2,45.0,62.0,51.1,-99.9,94,74,40,30.08,29.78,4,1,15,0.20
2012-9-24,68.0,50.0,36.0,50.0,41.7,34.0,95,76,40,30.13,30.03,3,1,15,0.00
2012-9-25,72.0,52.8,35.0,53.0,41.4,33.0,95,71,36,30.14,30.07,4,1,18,0.00
2012-9-26,72.0,67.5,62.0,63.0,61.3,59.0,91,81,70,30.00,29.97,2,1,16,0.01
2012-9-27,70.0,59.2,44.0,59.0,50.5,41.0,94,76,44,30.24,29.97,3,1,15,0.01
2012-9-28,54.0,49.2,41.0,53.0,47.8,39.0,95,94,91,30.25,30.01,0,0,4,1.52
2012-9-29,57.0,54.0,51.0,55.0,52.5,50.0,95,94,91,30.01,29.88,1,0,8,0.49
2012-9-30,60.0,55.2,50.0,57.0,53.5,48.0,95,93,85,29.91,29.67,1,0,7,0.06
2012-10-1,66.0,56.6,49.0,57.0,52.2,47.0,95,86,72,29.91,29.67,5,1,18,0.02
2012-10-2,70.0,58.9,52.0,62.0,55.8,50.0,95,90,63,30.05,29.91,2,0,10,0.13
2012-10-3,65.0,61.8,60.0,64.0,60.6,59.0,95,95,94,30.16,30.03,0,0,3,0.12
2012-10-4,62.0,60.6,59.0,61.0,59.6,58.0,95,95,95,30.16,30.03,1,0,5,0.12
2012-10-5,78.0,65.1,57.0,65.0,59.6,55.0,96,84,50,30.03,29.90,1,0,6,0.02
2012-10-6,79.0,61.9,52.0,65.0,56.1,46.0,95,83,58,29.89,29.65,6,1,14,0.01
2012-10-7,57.0,49.5,39.0,48.0,43.3,37.0,95,81,56,30.06,29.90,3,0,9,0.16
2012-10-8,56.0,47.1,36.0,49.0,42.8,34.0,95,86,63,30.30,30.04,2,0,7,0.18
2012-10-9,57.0,49.5,42.0,51.0,46.3,40.0,95,89,79,30.30,30.14,1,0,8,0.01
2012-10-10,59.0,52.8,48.0,57.0,50.8,45.0,95,93,91,30.14,29.70,2,0,7,0.23
2012-10-11,61.0,48.3,38.0,50.0,39.3,35.0,94,74,40,30.10,29.77,8,3,20,0.01
2012-10-12,56.0,42.6,35.0,43.0,34.0,25.0,95,74,41,30.34,29.97,6,2,17,0.04
2012-10-13,56.0,39.2,24.0,35.0,27.6,22.0,94,68,30,30.45,30.29,6,1,17,0.01
2012-10-14,60.0,50.2,42.0,56.0,47.1,34.0,94,90,69,30.29,29.89,3,0,9,0.38
2012-10-15,77.0,63.7,53.0,65.0,58.9,51.0,95,85,63,29.89,29.58,4,1,19,0.19
2012-10-16,61.0,51.1,34.0,59.0,43.2,32.0,94,76,51,29.88,29.56,11,4,25,0.23
2012-10-17,65.0,43.9,28.0,43.0,34.7,26.0,95,75,35,30.00,29.88,3,0,9,0.01
2012-10-18,68.0,49.0,33.0,50.0,41.3,31.0,95,78,39,30.12,30.00,2,0,9,0.00
2012-10-19,66.0,57.3,46.0,63.0,55.3,44.0,95,93,80,30.09,29.72,3,0,14,0.44
2012-10-20,76.0,65.0,52.0,67.0,59.0,45.0,96,82,42,29.73,29.59,5,1,14,0.53
2012-10-21,67.0,52.1,39.0,47.0,42.4,37.0,95,72,42,29.86,29.72,9,2,21,0.01
2012-10-22,68.0,51.8,39.0,47.0,41.9,37.0,94,72,41,29.99,29.85,9,2,24,0.00
2012-10-23,67.0,48.8,36.0,49.0,41.2,34.0,95,78,45,30.11,29.99,5,1,14,0.00
2012-10-24,60.0,46.5,34.0,44.0,38.3,32.0,94,76,47,30.21,30.11,3,0,8,0.00
2012-10-25,67.0,50.5,37.0,49.0,40.9,35.0,94,74,33,30.30,30.21,2,0,9,0.00
2012-10-26,69.0,52.0,39.0,57.0,47.4,37.0,95,85,63,30.25,30.10,3,0,9,0.00
2012-10-27,67.0,53.0,43.0,57.0,48.8,41.0,95,86,67,30.12,29.99,3,0,6,0.00
2012-10-28,56.0,51.8,49.0,51.0,48.0,44.0,93,87,78,30.02,29.81,2,1,10,0.02
2012-10-29,57.0,53.5,50.0,55.0,51.6,48.0,95,94,93,29.81,29.31,7,3,24,0.49
2012-10-30,71.0,62.4,52.0,63.0,57.7,50.0,94,85,66,29.57,29.50,4,1,13,0.46
2012-10-31,56.0,52.7,48.0,55.0,48.8,43.0,95,86,74,29.55,29.45,4,1,13,0.49
2012-11-1,56.0,48.1,41.0,45.0,42.1,39.0,92,80,61,29.55,29.49,5,1,12,0.01
2012-11-2,53.0,46.5,40.0,43.0,39.3,35.0,94,77,58,29.59,29.52,6,2,14,0.00
2012-11-3,53.0,43.5,35.0,38.0,35.4,32.0,93,74,52,29.78,29.58,7,3,17,0.00
2012-11-4,53.0,42.3,34.0,37.0,33.1,29.0,89,71,53,29.94,29.77,7,3,19,0.00
2012-11-5,47.0,37.0,25.0,29.0,24.6,20.0,86,62,41,30.12,29.94,5,2,14,0.00
2012-11-6,44.0,29.1,19.0,24.0,19.3,15.0,92,71,32,30.23,30.12,4,1,11,0.00
2012-11-7,38.0,32.7,21.0,28.0,19.7,14.0,91,61,39,30.20,29.80,6,3,18,0.00
2012-11-8,38.0,35.1,32.0,35.0,32.7,28.0,93,91,82,29.80,29.67,5,2,15,0.66
2012-11-9,53.0,42.0,35.0,34.0,29.4,23.0,83,64,32,30.07,29.76,7,3,19,0.08
2012-11-10,56.0,39.3,29.0,37.0,29.5,25.0,94,72,33,30.43,30.07,5,1,14,0.01
2012-11-11,63.0,45.4,29.0,46.0,38.3,26.0,91,78,49,30.48,30.36,3,0,12,0.00
2012-11-12,69.0,56.3,41.0,57.0,48.3,38.0,92,76,51,30.43,30.19,6,2,20,0.00
2012-11-13,65.0,48.8,32.0,60.0,45.3,29.0,93,88,76,30.42,30.08,7,2,19,0.22
2012-11-14,49.0,35.4,25.0,32.0,26.8,-99.9,97,75,40,30.55,30.42,3,0,10,0.02
2012-11-15,46.0,32.7,23.0,32.0,26.6,21.0,92,80,50,30.50,30.30,3,0,10,0.00
2012-11-16,46.0,33.3,27.0,33.0,27.5,24.0,93,81,53,30.42,30.29,2,0,7,0.00
2012-11-17,49.0,32.5,23.0,34.0,26.3,21.0,93,80,51,30.64,30.42,3,0,8,0.00
2012-11-18,49.0,31.5,21.0,34.0,24.9,19.0,93,78,46,30.71,30.62,2,0,6,0.00
2012-11-19,49.0,31.4,20.0,35.0,25.7,18.0,97,81,56,30.62,30.27,2,0,6,0.01
2012-11-20,51.0,32.1,20.0,32.0,25.8,18.0,93,79,46,30.28,30.13,2,0,6,0.01
2012-11-21,52.0,35.9,28.0,39.0,30.2,25.0,93,81,52,30.25,30.16,3,0,7,0.00
2012-11-22,56.0,38.2,28.0,42.0,32.8,26.0,94,82,55,30.28,30.10,2,0,7,0.00
2012-11-23,58.0,41.6,28.0,43.0,35.2,26.0,94,80,54,30.10,29.61,2,0,10,0.01
2012-11-24,47.0,40.5,31.0,43.0,27.4,17.0,93,61,40,29.61,29.52,11,5,26,0.01
2012-11-25,38.0,33.0,27.0,23.0,17.6,8.0,82,54,31,29.81,29.61,8,4,23,0.01
2012-11-26,46.0,33.1,22.0,29.0,23.4,19.0,88,69,40,30.22,29.81,9,2,23,0.00
2012-11-27,36.0,29.9,20.0,34.0,27.2,17.0,93,90,81,30.31,30.22,2,0,7,0.04
2012-11-28,39.0,31.3,22.0,31.0,25.6,19.0,93,80,54,30.24,30.10,2,0,7,0.01
2012-11-29,43.0,33.3,21.0,26.0,22.4,19.0,91,66,42,30.24,30.10,6,3,18,0.00
2012-11-30,38.0,30.2,26.0,28.0,10.9,-3.0,76,46,23,30.54,30.18,4,1,12,0.00
2012-12-1,29.0,27.3,25.0,26.0,20.0,6.0,91,75,39,30.63,30.49,1,0,7,0.00
2012-12-2,48.0,35.0,28.0,46.0,33.0,26.0,95,93,91,30.49,29.99,3,0,10,0.10
2012-12-3,57.0,43.4,30.0,49.0,38.9,27.0,95,85,60,30.30,29.98,6,1,17,0.04
2012-12-4,56.0,39.8,28.0,53.0,38.0,26.0,95,93,90,30.31,29.93,2,0,7,0.01
2012-12-5,58.0,48.5,32.0,54.0,38.1,16.0,92,68,50,30.14,29.81,10,5,26,0.02
2012-12-6,40.0,30.1,20.0,22.0,16.5,-99.9,88,61,40,30.32,30.14,6,2,18,0.01
2012-12-7,42.0,30.7,19.0,36.0,27.0,16.0,93,86,70,30.28,30.01,1,0,6,0.04
2012-12-8,41.0,39.0,37.0,39.0,37.0,35.0,94,94,93,30.01,29.84,2,0,6,0.31
2012-12-9,45.0,36.6,31.0,38.0,32.8,29.0,95,87,59,30.27,29.92,3,0,8,0.03
2012-12-10,46.0,42.3,36.0,45.0,40.9,34.0,95,95,92,30.16,29.46,1,0,4,0.36
2012-12-11,45.0,39.3,29.0,43.0,35.6,25.0,95,87,66,30.12,29.52,7,1,16,0.02
2012-12-12,38.0,28.4,23.0,28.0,23.6,20.0,93,83,58,30.40,30.12,2,0,8,0.01
2012-12-13,42.0,26.8,19.0,29.0,22.2,17.0,93,83,54,30.46,30.26,1,0,4,0.00
2012-12-14,47.0,30.3,19.0,30.0,22.6,17.0,93,76,37,30.26,30.03,7,1,17,0.01
2012-12-15,41.0,29.9,23.0,26.0,21.5,15.0,92,74,36,30.32,30.13,3,0,9,0.01
2012-12-16,27.0,26.0,25.0,23.0,19.8,16.0,90,78,66,30.32,30.11,2,1,7,0.00
2012-12-17,34.0,29.8,25.0,32.0,27.7,22.0,94,92,90,30.10,29.82,2,1,9,0.00
2012-12-18,44.0,38.8,34.0,43.0,37.4,32.0,95,95,94,29.82,29.40,3,1,8,1.06
2012-12-19,44.0,39.7,32.0,39.0,33.7,27.0,95,80,65,30.03,29.43,8,4,27,0.03
2012-12-20,40.0,32.8,25.0,33.0,28.3,23.0,94,84,66,30.21,30.03,1,0,6,0.00
2012-12-21,53.0,42.7,34.0,51.0,39.6,31.0,94,89,77,30.03,29.03,6,2,27,0.62
2012-12-22,39.0,33.4,28.0,35.0,24.3,16.0,90,70,53,29.61,29.18,10,5,27,0.01
2012-12-23,40.0,30.0,22.0,24.0,19.3,15.0,88,65,43,29.81,29.61,8,3,19,0.00
2012-12-24,39.0,29.4,23.0,24.0,20.3,17.0,88,70,41,30.03,29.82,8,2,19,0.00
2012-12-25,34.0,28.2,22.0,27.0,22.5,16.0,87,79,70,30.20,29.98,3,1,12,0.00
2012-12-26,35.0,26.6,17.0,28.0,18.8,13.0,91,73,46,30.31,29.94,2,0,8,0.00
2012-12-27,36.0,31.8,29.0,33.0,29.3,27.0,93,90,85,29.94,29.31,6,3,20,0.04
2012-12-28,35.0,29.5,25.0,27.0,22.3,19.0,87,75,62,29.98,29.61,9,4,21,0.06
2012-12-29,31.0,25.3,18.0,28.0,22.1,15.0,92,87,73,29.98,29.43,2,0,8,0.01
2012-12-30,29.0,25.5,20.0,26.0,17.2,8.0,92,71,55,29.92,29.44,10,6,25,0.01
2012-12-31,34.0,24.3,12.0,25.0,17.0,7.0,85,74,61,29.99,29.72,8,2,20,0.00
2013-1-1,35.0,29.2,16.0,27.0,16.1,3.0,81,59,42,29.91,29.67,11,5,24,0.00